Date String (YYYY-MM-DD hh:mm:ss) UTC,Instrument flags,Ambient pressure (hPa),Sample flow (lpm),Bypass flow (lpm),Sample temperature (°C),Ambient temperature (°C),ASC tube jacket temperature (°C),LED temperature (°C),Box temperature (°C),Sample RH (%),Span deviation,Mass concentration (μg/m³),Mass concentration (μg/m³),Mass concentration (μg/m³)
DateTimeUTC,F1_M11,P_M11,Q1_M11,Q2_M11,T1_M11,T2_M11,T3_M11,T4_M11,T5_M11,U1_M11,ZSPAN_M11,X2_M11,X0_M11,X1_M11
2022-04-15 17:00:00,,0819.4,5.00,0.00,23.9,23.2,00.0,32.7,25.7,10.2,0000.0,0006.31,0021.21,0004.30
2022-04-15 17:01:00,,0819.4,4.99,0.00,23.9,23.2,00.0,32.7,25.7,10.3,0000.0,0006.24,0021.08,0004.30
2022-04-15 17:02:00,,0819.4,5.00,0.00,23.9,23.2,00.0,32.7,25.7,10.4,0000.0,0006.20,0020.58,0004.31
2022-04-15 17:03:00,,0819.4,4.99,0.00,24.0,23.2,00.0,32.7,25.8,10.3,0000.0,0006.25,0020.41,0004.32
2022-04-15 17:04:00,,0819.4,5.01,0.00,24.0,23.3,00.0,32.8,25.8,10.5,0000.0,0006.21,0019.57,0004.32
2022-04-15 17:05:00,,0819.5,5.00,0.00,24.0,23.3,00.0,32.8,25.8,10.5,0000.0,0006.19,0018.86,0004.33
2022-04-15 17:06:00,,0819.6,5.00,0.00,24.0,23.3,00.0,32.8,25.9,10.5,0000.0,0006.20,0019.67,0004.34
2022-04-15 17:07:00,,0819.6,4.99,0.00,24.0,23.3,00.0,32.8,25.9,10.2,0000.0,0006.25,0020.36,0004.38
2022-04-15 17:08:00,,0819.7,5.00,0.00,24.0,23.3,00.0,32.8,25.9,10.3,0000.0,0006.24,0021.59,0004.40
2022-04-15 17:09:00,,0819.8,5.00,0.00,24.0,23.3,00.0,32.8,25.9,10.3,0000.0,0006.27,0021.30,0004.40
2022-04-15 17:10:00,,0819.8,5.01,0.00,24.0,23.3,00.0,32.9,25.9,10.5,0000.0,0006.31,0020.55,0004.43
2022-04-15 17:11:00,,0819.8,5.01,0.00,24.0,23.3,00.0,32.9,25.9,10.3,0000.0,0006.31,0020.34,0004.45
2022-04-15 17:12:00,,0819.7,5.01,0.00,24.0,23.3,00.0,32.9,25.9,10.4,0000.0,0006.33,0020.15,0004.46
2022-04-15 17:13:00,,0819.5,5.00,0.00,24.0,23.3,00.0,32.9,25.9,10.3,0000.0,0006.36,0020.61,0004.46
2022-04-15 17:14:00,,0819.4,4.99,0.00,24.1,23.3,00.0,32.9,25.9,10.3,0000.0,0006.31,0020.61,0004.47
2022-04-15 17:15:00,,0819.4,5.00,0.00,24.1,23.3,00.0,32.9,25.9,10.3,0000.0,0006.32,0020.73,0004.48
2022-04-15 17:16:00,,0819.4,5.01,0.00,24.1,23.3,00.0,32.9,26.0,10.3,0000.0,0006.33,0020.68,0004.48
2022-04-15 17:17:00,,0819.4,5.00,0.00,24.1,23.4,00.0,32.9,26.0,10.3,0000.0,0006.30,0020.39,0004.49
2022-04-15 17:18:00,,0819.5,5.01,0.00,24.1,23.4,00.0,32.9,26.0,10.3,0000.0,0006.29,0020.21,0004.48
2022-04-15 17:19:00,,0819.5,4.99,0.00,24.1,23.4,00.0,33.0,26.0,10.4,0000.0,0006.31,0018.86,0004.49
2022-04-15 17:20:00,,0819.6,4.99,0.00,24.2,23.4,00.0,33.0,26.0,10.6,0000.0,0006.32,0019.20,0004.49
2022-04-15 17:21:00,,0819.7,5.00,0.00,24.2,23.4,00.0,33.0,26.0,10.6,0000.0,0006.33,0020.17,0004.48
2022-04-15 17:22:00,,0819.8,5.00,0.00,24.2,23.4,00.0,33.0,26.0,10.5,0000.0,0006.36,0021.57,0004.47
2022-04-15 17:23:00,,0819.8,5.01,0.00,24.2,23.5,00.0,33.0,26.1,10.7,0000.0,0006.40,0023.10,0004.46
2022-04-15 17:24:00,,0819.8,5.01,0.00,24.2,23.5,00.0,33.0,26.1,10.6,0000.0,0006.43,0023.95,0004.47
2022-04-15 17:25:00,,0819.8,5.01,0.00,24.2,23.5,00.0,33.0,26.1,10.6,0000.0,0006.43,0024.59,0004.48
2022-04-15 17:26:00,,0819.8,4.99,0.00,24.3,23.5,00.0,33.1,26.1,10.7,0000.0,0006.51,0025.15,0004.48
2022-04-15 17:27:00,,0819.8,5.00,0.00,24.3,23.5,00.0,33.1,26.1,10.7,0000.0,0006.49,0025.49,0004.47
2022-04-15 17:28:00,,0819.8,5.01,0.00,24.3,23.5,00.0,33.1,26.1,10.8,0000.0,0006.52,0025.21,0004.45
2022-04-15 17:29:00,,0819.8,5.00,0.00,24.3,23.5,00.0,33.1,26.2,10.7,0000.0,0006.53,0024.92,0004.45
2022-04-15 17:30:00,,0819.8,5.00,0.00,24.3,23.5,00.0,33.1,26.2,10.8,0000.0,0006.53,0024.72,0004.43
2022-04-15 17:31:00,,0819.8,5.00,0.00,24.3,23.6,00.0,33.1,26.2,10.7,0000.0,0006.47,0023.70,0004.41
2022-04-15 17:32:00,,0819.8,5.00,0.00,24.3,23.6,00.0,33.1,26.2,10.8,0000.0,0006.39,0022.55,0004.40
2022-04-15 17:33:00,,0819.9,4.99,0.00,24.3,23.6,00.0,33.2,26.2,10.9,0000.0,0006.33,0022.27,0004.40
2022-04-15 17:34:00,,0819.8,5.00,0.00,24.4,23.6,00.0,33.2,26.2,10.9,0000.0,0006.27,0021.54,0004.41
2022-04-15 17:35:00,,0819.9,5.00,0.00,24.4,23.6,00.0,33.2,26.2,10.8,0000.0,0006.27,0021.05,0004.41
2022-04-15 17:36:00,,0819.9,5.00,0.00,24.4,23.6,00.0,33.2,26.2,11.0,0000.0,0006.28,0020.17,0004.40
2022-04-15 17:37:00,,0819.8,5.00,0.00,24.4,23.6,00.0,33.2,26.3,10.9,0000.0,0006.21,0020.11,0004.39
2022-04-15 17:38:00,,0819.8,5.00,0.00,24.4,23.7,00.0,33.2,26.3,10.9,0000.0,0006.28,0021.21,0004.38
2022-04-15 17:39:00,,0819.8,5.01,0.00,24.4,23.7,00.0,33.2,26.3,10.8,0000.0,0006.31,0021.81,0004.39
2022-04-15 17:40:00,,0819.8,5.00,0.00,24.5,23.7,00.0,33.3,26.3,11.0,0000.0,0006.36,0022.18,0004.39
2022-04-15 17:41:00,,0819.7,5.01,0.00,24.5,23.7,00.0,33.3,26.3,11.1,0000.0,0006.37,0024.56,0004.38
2022-04-15 17:42:00,,0819.7,5.01,0.00,24.5,23.8,00.0,33.3,26.4,11.3,0000.0,0006.37,0026.11,0004.37
2022-04-15 17:43:00,,0819.8,5.00,0.00,24.5,23.8,00.0,33.3,26.4,11.4,0000.2,0006.35,0027.06,0004.36
2022-04-15 17:44:00,,0819.7,5.00,0.00,24.5,23.8,00.0,33.3,26.5,11.6,0000.2,0006.34,0026.86,0004.32
2022-04-15 17:45:00,,0819.7,5.00,0.00,24.6,23.9,00.0,33.3,26.4,11.7,0000.1,0006.28,0026.41,0004.28
2022-04-15 17:46:00,,0819.6,4.99,0.00,24.6,23.9,00.0,33.4,26.5,11.7,0000.0,0006.24,0026.82,0004.23
2022-04-15 17:47:00,,0819.5,4.99,0.00,24.6,23.9,00.0,33.4,26.5,11.8,0000.0,0006.20,0026.30,0004.18
2022-04-15 17:48:00,,0819.6,5.01,0.00,24.6,23.9,00.0,33.4,26.5,11.9,0000.0,0006.18,0025.19,0004.14
2022-04-15 17:49:00,,0819.6,5.01,0.00,24.6,23.9,00.0,33.4,26.5,12.3,0000.0,0006.06,0023.30,0004.10
2022-04-15 17:50:00,,0819.6,5.00,0.00,24.7,23.9,00.0,33.4,26.5,12.5,0000.0,0005.88,0021.60,0004.04
2022-04-15 17:51:00,,0819.7,5.00,0.00,24.7,24.0,00.0,33.4,26.6,12.6,0000.0,0005.77,0021.40,0003.96
2022-04-15 17:52:00,,0819.7,4.99,0.00,24.7,24.0,00.0,33.5,26.6,12.7,0000.0,0005.62,0019.72,0003.89
2022-04-15 17:53:00,,0819.7,5.00,0.00,24.7,24.0,00.0,33.5,26.6,13.0,0000.0,0005.44,0017.30,0003.78
2022-04-15 17:54:00,,0819.7,4.99,0.00,24.7,24.0,00.0,33.5,26.6,13.1,0000.0,0005.22,0015.11,0003.62
2022-04-15 17:55:00,,0819.7,5.00,0.00,24.8,24.0,00.0,33.5,26.6,13.0,0000.0,0005.07,0013.99,0003.49
2022-04-15 17:56:00,,0819.7,5.02,0.00,24.8,24.0,00.0,33.5,26.6,13.1,0000.0,0004.90,0013.00,0003.38
2022-04-15 17:57:00,,0819.7,5.01,0.00,24.8,24.0,00.0,33.6,26.7,13.3,0000.0,0004.78,0012.09,0003.28
2022-04-15 17:58:00,,0819.7,4.99,0.00,24.8,24.0,00.0,33.6,26.7,13.3,0000.0,0004.63,0011.99,0003.19
2022-04-15 17:59:00,,0819.8,4.99,0.00,24.8,24.0,00.0,33.6,26.7,12.9,0000.0,0004.41,0011.67,0003.11
